Regional Weather Roundup
Issued by NWS

Home | Current Version | Previous Version | Graphics & Text | Print | Product List | Glossary On
Versions: 1 2 3 4 5 6 7 8 9 10 11 12 13 14 15 16 17 18 19 20 21 22 23 24 25 26 27 28 29 30 31 32 33 34 35 36 37 38 39 40 41 42 43 44 45 46 47 48 49 50
000
ASUS43 KMPX 251210
RWRMN
WEATHER ROUNDUP FOR MINNESOTA
NATIONAL WEATHER SERVICE TWIN CITIES/CHANHASSEN MN
700 AM CDT THU MAY 25 2017


NOTE: "FAIR" INDICATES FEW OR NO CLOUDS BELOW 12,000 FEET WITH NO
SIGNIFICANT WEATHER AND/OR OBSTRUCTIONS TO VISIBILITY. N/A MEANS
CURRENT SKY AND/OR WEATHER CONDITIONS ARE NOT AVAILABLE.

MNZ060>063-068>070-251300-
   Twin Cities Metro

CITY           SKY/WX    TMP DP  RH WIND       PRES   REMARKS
TWIN CITIES    SUNNY     52  48  86 SE6       29.72R
6HR MIN TEMP:  50; 6HR MAX TEMP:  55;

ST PAUL        SUNNY     52  50  93 SE5       29.72S
CRYSTAL        SUNNY     50  46  86 CALM      29.71R
BLAINE         SUNNY     52  52 100 SE3       29.72R
LAKEVILLE      FOG       45  45 100 CALM      29.72R VSB 1/4
EDEN PRAIRIE   SUNNY     52  49  89 E6        29.71R
6HR MIN TEMP:  47; 6HR MAX TEMP:  52;

SOUTH ST PAUL  SUNNY     51  49  93 SE3       29.72S
LAKE ELMO      FAIR      50  50 100 CALM      29.73R
$$
MNZ001>005-007-008-013>017-022>024-027-028-251300-
   Northwest Minnesota

CITY           SKY/WX    TMP DP  RH WIND       PRES   REMARKS
BEMIDJI        CLOUDY    47  44  90 SE9       29.67R
HALLOCK        PTSUNNY   52  43  71 SE15      29.56F
ROSEAU         MOSUNNY   48  45  87 SE10      29.64F
WARROAD        CLOUDY    48  45  87 SE9       29.66F
THIEF RVR FALL MOSUNNY   48  43  82 SE18      29.60F
CROOKSTON      CLOUDY    52  45  76 SE16      29.57F
FOSSTON        MOSUNNY   46  45  93 SE8       29.63F
DETROIT LAKES  CLOUDY    48  45  87 SE14      29.63F
MOORHEAD       PTSUNNY   52  43  71 SE16      29.55F
PARK RAPIDS    MOSUNNY   50  43  77 SE9       29.66S
MAHNOMEN       FAIR      50  45  83 SE13G21   29.61F
$$
MNZ006-009>011-018-025>026-251300-
   North Central Minnesota

CITY           SKY/WX    TMP DP  RH WIND       PRES   REMARKS
BAUDETTE       SUNNY     45  41  86 SE9       29.69F
FLAG ISLAND    CLOUDY    50  43  76 SE15      29.66F
INTL FALLS     SUNNY     45  39  79 SE7       29.73S
6HR MIN TEMP:  39; 6HR MAX TEMP:  45;

WASKISH        CLOUDY    45  43  93 E5        29.69S
BIG FORK       SUNNY     46  41  81 SE5       29.72S
LONGVILLE      CLOUDY    45  43  93 E3        29.70S
GRAND RAPIDS   SUNNY     43  41  93 S5        29.74F
CRANE LAKE     SUNNY     36  36 100 CALM      29.78R
ORR            SUNNY     43  39  87 SE3       29.73R
COOK           SUNNY     43  39  87 CALM      29.76R
WALKER         FAIR      46  43  88 SE7       29.68S
$$
MNZ012-019>021-037-251300-
   Northeast Minnesota

CITY           SKY/WX    TMP DP  RH WIND       PRES   REMARKS
DULUTH         PTSUNNY   45  42  89 E5        29.75R
6HR MIN TEMP:  40; 6HR MAX TEMP:  45;

ELY            SUNNY     37  37 100 CALM      29.77R
HIBBING        SUNNY     41  40  96 CALM      29.74R
EVELETH        SUNNY     43  40  90 E3        29.77R
DULUTH HARBOR  CLOUDY    45  41  87 NE7       29.78R
TWO HARBORS    MOSUNNY   48  43  81 NE6       29.74S
SILVER BAY     SUNNY     45  43  93 CALM      29.76R
GRAND MARAIS     N/A     44  42  93 CALM      29.77S
G MARAIS ARPRT CLOUDY    43  36  75 NE5       29.78S
$$
MNZ029>031-032-039>041-046>048-054>057-064-251300-
   West Central Minnesota

CITY           SKY/WX    TMP DP  RH WIND       PRES   REMARKS
FERGUS FALLS   CLOUDY    52  45  76 SE14      29.60F
WHEATON        CLOUDY    48  45  87 SE22      29.56F
MORRIS         MOSUNNY   50  45  81 SE16      29.61F
ALEXANDRIA     MOSUNNY   48  44  86 SE12      29.66F
ELBOW LAKE     FAIR      51  45  80 E14       29.61F
WADENA         SUNNY     46  45  93 SE7       29.66S
GLENWOOD       MOSUNNY   48  45  87 SE9       29.67S
APPLETON       MOSUNNY   52  45  76 SE8       29.63S
BENSON         SUNNY     52  45  76 S12       29.66F
ORTONVILLE     MOSUNNY   48  45  87 SE16      29.58F
MADISON        CLOUDY    52  52 100 SE12      29.63R
WILLMAR        FAIR      52  46  82 SE9       29.68F
$$
MNZ033>034-036-042>043-049>051-058-059-251300-
   Central Minnesota

CITY           SKY/WX    TMP DP  RH WIND       PRES   REMARKS
ST CLOUD       SUNNY     49  48  97 E6        29.71R
6HR MIN TEMP:  46; 6HR MAX TEMP:  52;

SAUK CENTRE    FAIR      46  44  91 SE5       29.69S
PAYNESVILLE    SUNNY     50  50  98 SE6       29.70R
AITKIN         CLOUDY    46  45  93 CALM      29.71R
PINE RIVER     CLOUDY    48  45  87 E8        29.73S
BRAINERD       SUNNY     49  46  90 SE8       29.70S
STAPLES        SUNNY     46  45  93 SE5       29.68S
LONG PRAIRIE   FAIR      46  45  93 E5        29.69S
LITTLE FALLS   SUNNY     48  45  87 E6        29.70R
LITCHFIELD     SUNNY     52  48  87 CALM      29.70R
BUFFALO        SUNNY     49  47  92 E3        29.71S
MAPLE LAKE     SUNNY     51  50  99 E3        29.71S
HUTCHINSON     PTSUNNY   49  47  94 CALM      29.70R
$$
MNZ037-044-045-052-053-251300-
   East Central Minnesota

CITY           SKY/WX    TMP DP  RH WIND       PRES   REMARKS
PRINCETON      SUNNY     52  48  87 E3        29.72R
MORA           SUNNY     46  43  87 E3        29.74R
CAMBRIDGE      SUNNY     54  46  76 E3        29.70R
RUSH CITY      MOSUNNY   47  46  95 CALM      29.73R
MOOSE LAKE     CLOUDY    41  39  93 NE3       29.74R
HINCKLEY       CLOUDY    46  45  93 CALM      29.74R
CLOQUET        PTSUNNY   41  39  93 CALM      29.75R
MCGREGOR       MOSUNNY   43  41  93 E8        29.74R
$$
MNZ071>073-080-081-089-090-097-098-251300-
   Southwest Minnesota

CITY           SKY/WX    TMP DP  RH WIND       PRES   REMARKS
MONTEVIDEO     SUNNY     50  46  87 S9        29.64S
CANBY          CLOUDY    49  47  92 CALM      29.64R
MARSHALL       SUNNY     50  46  86 S9        29.66R
REDWOOD FALLS  SUNNY     49  45  86 SE8       29.66R
OLIVIA         SUNNY     50  45  81 SE8       29.67S
PIPESTONE      CLOUDY    50  43  76 S9        29.64R
WINDOM         SUNNY     52  46  82 SE10      29.65S
WORTHINGTON    SUNNY     50  46  86 S12       29.65R
JACKSON        SUNNY     50  45  81 SE9       29.66S
TRACY          SUNNY     51  47  88 S9        29.65R
SLAYTON        SUNNY     47  45  93 SE10      29.64R
$$
MNZ065>067-074>077-082>085-091>093-251300-
   South Central Minnesota

CITY           SKY/WX    TMP DP  RH WIND       PRES   REMARKS
MANKATO          N/A     50  48  93 SE8       29.70R
NEW ULM        SUNNY     48  46  93 SE3       29.69R
ST JAMES       SUNNY     46  46 100 E7        29.68R
FAIRMONT       SUNNY     49  47  93 S7        29.69R
GLENCOE        SUNNY     50  49  98 E5        29.69R
FARIBAULT      SUNNY     50  48  93 E5        29.71S
OWATONNA       SUNNY     50  48  93 SE5       29.71S
WASECA         SUNNY     46  45  93 SE5       29.72R
ALBERT LEA       N/A     50  50 100 SE5       29.71S
$$
MNZ078>079-086>088-094>096-251300-
   Southeast Minnesota

CITY           SKY/WX    TMP DP  RH WIND       PRES   REMARKS
ROCHESTER      SUNNY     50  49  96 CALM      29.73R
6HR MIN TEMP:  45; 6HR MAX TEMP:  52;

RED WING       SUNNY     50  46  87 CALM      29.71S
STANTON        SUNNY     51  50  96 SE5       29.70F
DODGE CENTER   CLOUDY    48  48 100 SE3       29.72S
WINONA         CLOUDY    48  48 100 CALM      29.73S FOG
AUSTIN         CLOUDY    48  46  93 CALM      29.71F
PRESTON        SUNNY     48  47  94 CALM      29.72S FOG
$$
ABBREVIATIONS USED IN REMARKS
   TC - TEMPERATURES IN CELSIUS
  WCI - WIND CHILL INDEX
   HX - HEAT INDEX
  VSB - VISIBILITY
$$



USA.gov is the U.S. government's official web portal to all federal, state and local government web resources and services.